Location: Moscow
(55.7500°N, 37.5830°E)
Time: 15:48:29
(UTC+03:00)

Transit 2A - Pass Details

Date: 07 December 2021
Orbit: 591 x 967 km, 66.7° (Epoch: 17 January)

Event Time Altitude Azimuth Distance (km) Brightness Sun altitude
Rises 23:25:02 0° 190° (S) 3,358 - -55.3°
Reaches altitude 10° 23:27:32 10° 183° (S) 2,484 - -55.5°
Maximum altitude 23:32:52 39° 116° (ESE) 1,340 - -55.8°
Drops below altitude 10° 23:38:35 10° 51° (NE) 2,677 - -56.0°
Sets 23:41:21 0° 44° (NE) 3,650 - -56.1°
